Regional Weather Roundup
Issued by NWS Upton, NY

Current Version | Previous Version | Graphics & Text | Print | Product List | Glossary Off
Versions: 1 2 3 4 5 6 7 8 9 10 11 12 13 14 15 16 17 18 19 20 21 22 23 24 25 26 27

000
ASUS41 KOKX 161808
RWROKX

Regional Weather Roundup
National Weather Service New York NY
100 PM EST TUE JAN 16 2018

Note: "FAIR" indicates few or no clouds below 12,000 feet with no
significant weather and/or obstructions to visibility.

NYZ071-072-176-178-NJZ106-104-161900-
New York City Metro Area

CITY           SKY/WX    TMP DP  RH WIND       PRES   REMARKS
Central Park   CLOUDY    35  26  69 VRB5      30.45F WCI  31
Bronx Bot Gard   N/A     32  25  74 E2        30.43F
Bronx Lehman C   N/A     32  27  80 E3          N/A
LaGuardia Arpt CLOUDY    33  25  72 NE10      30.44F WCI  25
Queens College   N/A     34  27  75 N5          N/A  WCI  30
Kennedy Intl   PTSUNNY   36  29  75 E8        30.45F WCI  30
Breezy Point     N/A     34 N/A N/A E6          N/A  WCI  29
Brooklyn Coll    N/A     34  30  86 SE6         N/A  WCI  29
Staten Island    N/A     36  32  87 SE6         N/A  WCI  31
Newark/Liberty CLOUDY    36  29  75 E6        30.44F WCI  31
Teterboro      CLOUDY    34  24  67 VRB3      30.43F
$$

NYZ177-179-078>081-161900-
Long Island New York

CITY           SKY/WX    TMP DP  RH WIND       PRES   REMARKS
Jones Beach      N/A     34 N/A N/A E7          N/A  WCI  28
Wantagh          N/A     32  28  86 E7          N/A  WCI  26
Matinecock Pt    N/A    N/A N/A N/A NE10        N/A
Farmingdale    CLOUDY    35  27  72 SE5       30.44F WCI  31
MacArthur/ISP  CLOUDY    37  28  70 S7        30.44F WCI  32
Shirley        CLOUDY    37  29  72 SE8       30.45F WCI  31
Mt Sinai Harb    N/A    N/A N/A N/A E7          N/A
Westhampton    CLOUDY    37  27  67 E6        30.46F WCI  32
East Hampton   CLOUDY    37  29  71 E3        30.45F
Southold         N/A     34  27  75 E5          N/A  WCI  30
Montauk          N/A     40  29  64 CALM      30.47F
$$

NYZ052-065-067-161900-
Hudson Valley

CITY           SKY/WX    TMP DP  RH WIND       PRES   REMARKS
White Plains   PTSUNNY   29  22  75 CALM      30.41F
Larchmont Harb   N/A    N/A N/A N/A NE8         N/A
Croton On Huds   N/A    N/A N/A N/A CALM        N/A
Somers           N/A     30  25  80 SE2         N/A
Brewster         N/A     30  25  80 S1          N/A
Newburgh       CLOUDY    27  25  93 CALM      30.43F FOG
Montgomery     CLOUDY    27  22  81 CALM      30.41F
Otisville        N/A     27  23  86 SE1         N/A
Warwick          N/A     30  25  80 W2          N/A
Suffern          N/A     30  25  80 SW1         N/A
Poughkeepsie   CLOUDY    28  22  78 CALM      30.43F HAZE
Albany         CLOUDY    27  20  75 S6        30.42F WCI  20
$$

NJZ001-105-106-008-010-013-015-019>022-104-161900-
New Jersey

CITY           SKY/WX    TMP DP  RH WIND       PRES   REMARKS
Newark/Liberty CLOUDY    36  29  75 E6        30.44F WCI  31
Teterboro      CLOUDY    34  24  67 VRB3      30.43F
Caldwell       CLOUDY    31  22  69 CALM      30.44F
Somerville     CLOUDY    35  26  69 CALM      30.42F
Linden         CLOUDY    37  30  77 CALM      30.44F
Perth Amboy      N/A     34 N/A N/A SE5         N/A  WCI  30
Sussex         CLOUDY    29  24  82 CALM      30.41F
Andover          N/A     30  25  81 CALM      30.40F
Trenton        PTSUNNY   38  28  67 VRB3      30.42F
Millville      PTSUNNY   45  33  63 SE7       30.41F
Atlantic City  FAIR      44  32  62 E9        30.43F
Wrightstown    PTSUNNY   44  30  56 CALM      30.38F
Toms River     CLOUDY    41  33  73 E7        30.43F
Belmar         CLOUDY    39  31  72 SE8       30.43F WCI  33
$$

PAZ047>061-062-071-161900-
Eastern Pennsylvania

CITY           SKY/WX    TMP DP  RH WIND       PRES   REMARKS
Philadelphia   PTSUNNY   41  28  60 W3        30.42F
Allentown      CLOUDY    31  25  78 N3        30.42F HAZE
Scranton       LGT SNOW  29  26  89 CALM      30.36F VSB 3/4
$$

CTZ002-004>006-009-010-012-RIZ004-006-007-MAZ004-011-015-161900-
Southern New England

 In CT

CITY           SKY/WX    TMP DP  RH WIND       PRES   REMARKS
Bradley Intl   CLOUDY    29  19  66 S6        30.45F WCI  23
Hartford       CLOUDY   N/A N/A N/A CALM      30.46F
Danbury        CLOUDY    31  24  75 SE7       30.43F WCI  24
Wtrbury/Oxford CLOUDY    31  24  75 S7        30.42F WCI  24
Norwalk Harbor   N/A    N/A N/A N/A NE8         N/A
Bridgeport     CLOUDY    29  21  72 NE7       30.46F WCI  22
Meriden        CLOUDY    30  21  69 CALM      30.45F
New Haven      CLOUDY    32  22  66 E6        30.45F WCI  26
Chester        CLOUDY    36  25  64 S5        30.44F WCI  32
Groton         CLOUDY    35  26  69 CALM      30.46F
Willimantic    CLOUDY    31  21  66 SE5       30.46F WCI  26

 In RI

CITY           SKY/WX    TMP DP  RH WIND       PRES   REMARKS
Providence     PTSUNNY   35  24  64 SE9       30.47F WCI  28
Block Island   PTSUNNY   36  29  75 S6        30.47F WCI  31
Westerly       CLOUDY    36  29  75 S8        30.47F WCI  30

In MA

CITY           SKY/WX    TMP DP  RH WIND       PRES   REMARKS
Boston         PTSUNNY   31  21  66 SE5       30.47F WCI  26
Worcester      CLOUDY    28  18  66 S8        30.40F WCI  20
Westfield      CLOUDY    30  22  72 S6        30.43F WCI  24
Provincetown   PTSUNNY   34  24  67 MISG        N/A
Nantucket      FAIR      36  28  73 S5        30.48F WCI  32
$$

ANZ330-335-338-340-345-350-353-355-161900-
Coastal Marine Observations


STATION/POSITION TIME  SKY/WX   TEMP    WIND        PRES    VSBY  WAVE
                                AIR SEA DIR/SP/G                  HT/PER
                 (UTC)          (F)     (DEG/KT/KT) (MB)    (MI)  (FT/S)
NY Harb Entrance 1650            36 42  110/ 10/ 14 1031.2          4/10
20 S Fire Island 1650            35 40   60/ 10/ 12 1031.8          5/ 9
15 E Barnegat Li 1730               43                N/A           6/11
Hudson Canyon    1650            42 52  100/  8/ 12 1031.1          8/11
Kings Point      1730            30 32   60/  5/  7 1032.2
Execution Rocks  NOT AVBL
Western LI Sound NOT AVBL
Central LI Sound 1730            29      80/  6/  8   N/A           0
Robbins Reef     1730            33      20/  3/  4 1031.6
$$


>>>>>>>>>>>>>>>>>>>>>>>>>>>> KEY <<<<<<<<<<<<<<<<<<<<<<<<<<<
>                                                          <
>     SKY/WX - Sky Condition/Present Weather               <
>     TMP    - Temperature in Fahrenheit                   <
>     DP     - Dew Point in Fahrenheit                     <
>     RH     - Relative Humidity in Percent                <
>     WIND   - Direction (from) and Speed in MPH           <
>     PRES   - Mean Sea Level Pressure (inches of Hg)      <
>     WCI    - Wind Chill Index                            <
>     VSB    - Visibility in Miles                         <
>     HX     - Heat Index                                  <
>     TC     - Temperature in Celsius                      <
>     VRB    - Varibale Wind Direction                     <
>                                                          <
>>>>>>>>>>>>>>>>>>>>>>>>>>>> KEY <<<<<<<<<<<<<<<<<<<<<<<<<<<




USA.gov is the U.S. government's official web portal to all federal, state and local government web resources and services.